EN

Hourly Weather Amaranka

Today, 28 January, Thursday

Time Temperature Precipitation Wind Pressure Humidity
00:00 -28°C° 0 mm 1 mps 741 mmHg 99%
01:00 -28°C° 0 mm 1 mps 741 mmHg 99%
02:00 -28°C° 0 mm 1 mps 741 mmHg 99%
03:00 -29°C° 0 mm 1 mps 742 mmHg 99%
04:00 -30°C° 0 mm 1 mps 741 mmHg 99%
05:00 -30°C° 0 mm 1 mps 741 mmHg 99%
06:00 -31°C° 0 mm 1 mps 741 mmHg 99%
07:00 -31°C° 0 mm 1 mps 741 mmHg 99%
08:00 -31°C° 0 mm 1 mps 742 mmHg 98%
09:00 -30°C° 0 mm 1 mps 742 mmHg 99%
10:00 -28°C° 0 mm 1 mps 742 mmHg 96%
11:00 -27°C° 0 mm 1 mps 742 mmHg 93%
12:00 -25°C° 0 mm 1 mps 742 mmHg 89%
13:00 -25°C° 0 mm 1 mps 741 mmHg 88%
14:00 -24°C° 0 mm 1 mps 741 mmHg 87%
15:00 -24°C° 0 mm 1 mps 741 mmHg 86%
16:00 -25°C° 0 mm 1 mps 741 mmHg 90%
17:00 -28°C° 0 mm 1 mps 741 mmHg 94%
18:00 -29°C° 0 mm 1 mps 741 mmHg 98%
19:00 -30°C° 0 mm 1 mps 742 mmHg 98%
20:00 -30°C° 0 mm 1 mps 742 mmHg 98%
21:00 -31°C° 0 mm 1 mps 743 mmHg 99%
22:00 -31°C° 0 mm 1 mps 743 mmHg 99%
23:00 -31°C° 0 mm 1 mps 743 mmHg 99%

Tomorrow, 29 January, Friday

Time Temperature Precipitation Wind Pressure Humidity
00:00 -32°C° 0 mm 1 mps 743 mmHg 99%
01:00 -32°C° 0 mm 1 mps 743 mmHg 99%
02:00 -33°C° 0 mm 1 mps 743 mmHg 99%
03:00 -33°C° 0 mm 1 mps 742 mmHg 99%
04:00 -33°C° 0 mm 1 mps 742 mmHg 99%
05:00 -34°C° 0 mm 1 mps 742 mmHg 99%
06:00 -34°C° 0 mm 1 mps 742 mmHg 99%
07:00 -34°C° 0 mm 1 mps 743 mmHg 99%
08:00 -34°C° 0 mm 1 mps 743 mmHg 99%
09:00 -34°C° 0 mm 1 mps 743 mmHg 99%
10:00 -32°C° 0 mm 1 mps 743 mmHg 94%
11:00 -31°C° 0 mm 1 mps 743 mmHg 90%
12:00 -29°C° 0 mm 1 mps 744 mmHg 86%
13:00 -29°C° 0 mm 1 mps 743 mmHg 86%
14:00 -30°C° 0 mm 2 mps 743 mmHg 87%
15:00 -30°C° 0 mm 2 mps 743 mmHg 88%
16:00 -29°C° 0 mm 1 mps 744 mmHg 91%
17:00 -31°C° 0 mm 1 mps 744 mmHg 93%
18:00 -32°C° 0 mm 1 mps 745 mmHg 96%
19:00 -33°C° 0 mm 1 mps 745 mmHg 96%
20:00 -33°C° 0 mm 1 mps 745 mmHg 96%
21:00 -33°C° 0 mm 1 mps 745 mmHg 96%
22:00 -34°C° 0 mm 1 mps 746 mmHg 95%
23:00 -34°C° 0 mm 1 mps 746 mmHg 95%

Day after tomorrow, 30 January, Saturday

Time Temperature Precipitation Wind Pressure Humidity
00:00 -37°C° 0 mm 2 mps 746 mmHg 95%
01:00 -37°C° 0 mm 2 mps 746 mmHg 96%
02:00 -37°C° 0 mm 2 mps 746 mmHg 96%
03:00 -38°C° 0 mm 2 mps 746 mmHg 97%
04:00 -38°C° 0 mm 2 mps 746 mmHg 97%
05:00 -38°C° 0 mm 2 mps 747 mmHg 97%
06:00 -38°C° 0 mm 2 mps 747 mmHg 98%
07:00 -38°C° 0 mm 2 mps 747 mmHg 97%
08:00 -38°C° 0 mm 2 mps 747 mmHg 97%
09:00 -38°C° 0 mm 2 mps 748 mmHg 97%
10:00 -37°C° 0 mm 2 mps 748 mmHg 94%
11:00 -36°C° 0 mm 2 mps 748 mmHg 91%
12:00 -34°C° 0 mm 2 mps 748 mmHg 89%
13:00 -34°C° 0 mm 2 mps 748 mmHg 88%
14:00 -32°C° 0 mm 2 mps 748 mmHg 88%
15:00 -32°C° 0 mm 2 mps 748 mmHg 88%
16:00 -34°C° 0 mm 2 mps 748 mmHg 91%
17:00 -36°C° 0 mm 2 mps 748 mmHg 93%
18:00 -37°C° 0 mm 2 mps 749 mmHg 96%
19:00 -35°C° 0 mm 1 mps 749 mmHg 97%
20:00 -35°C° 0 mm 1 mps 749 mmHg 97%
21:00 -35°C° 0 mm 1 mps 749 mmHg 98%
22:00 -36°C° 0 mm 1 mps 749 mmHg 98%
23:00 -36°C° 0 mm 1 mps 749 mmHg 98%

31 January, Sunday

Time Temperature Precipitation Wind Pressure Humidity
00:00 -36°C° 0 mm 1 mps 749 mmHg 98%
01:00 -36°C° 0 mm 1 mps 749 mmHg 98%
02:00 -36°C° 0 mm 1 mps 750 mmHg 98%
03:00 -36°C° 0 mm 1 mps 750 mmHg 98%
04:00 -37°C° 0 mm 1 mps 749 mmHg 98%
05:00 -37°C° 0 mm 1 mps 749 mmHg 98%
06:00 -36°C° 0 mm 0 mps 749 mmHg 98%
07:00 -36°C° 0 mm 0 mps 749 mmHg 97%
08:00 -35°C° 0 mm 0 mps 750 mmHg 97%
09:00 -35°C° 0 mm 0 mps 750 mmHg 96%
10:00 -34°C° 0 mm 1 mps 750 mmHg 92%
11:00 -32°C° 0 mm 1 mps 749 mmHg 88%
12:00 -30°C° 0 mm 1 mps 749 mmHg 84%
13:00 -30°C° 0 mm 1 mps 749 mmHg 83%
14:00 -29°C° 0 mm 1 mps 749 mmHg 82%
15:00 -27°C° 0 mm 0 mps 748 mmHg 81%
16:00 -29°C° 0 mm 0 mps 748 mmHg 86%
17:00 -31°C° 0 mm 0 mps 748 mmHg 90%
18:00 -32°C° 0 mm 0 mps 749 mmHg 95%
19:00 -33°C° 0 mm 0 mps 749 mmHg 95%
20:00 -33°C° 0 mm 0 mps 749 mmHg 95%
21:00 -34°C° 0 mm 0 mps 749 mmHg 96%
22:00 -34°C° 0 mm 0 mps 749 mmHg 96%
23:00 -34°C° 0 mm 0 mps 748 mmHg 96%

1 February, Monday

Time Temperature Precipitation Wind Pressure Humidity
00:00 -35°C° 0 mm 1 mps 748 mmHg 96%
01:00 -35°C° 0 mm 1 mps 748 mmHg 96%
02:00 -36°C° 0 mm 1 mps 748 mmHg 97%
03:00 -35°C° 0 mm 0 mps 748 mmHg 97%
04:00 -36°C° 0 mm 1 mps 747 mmHg 97%
05:00 -36°C° 0 mm 1 mps 747 mmHg 97%
06:00 -36°C° 0 mm 1 mps 746 mmHg 97%
07:00 -36°C° 0 mm 1 mps 746 mmHg 97%
08:00 -39°C° 0 mm 2 mps 746 mmHg 97%
09:00 -39°C° 0 mm 2 mps 746 mmHg 96%
10:00 -37°C° 0 mm 2 mps 745 mmHg 94%
11:00 -36°C° 0 mm 2 mps 744 mmHg 92%
12:00 -36°C° 0 mm 3 mps 744 mmHg 89%
13:00 -35°C° 0 mm 3 mps 743 mmHg 89%
14:00 -35°C° 0 mm 3 mps 742 mmHg 88%
15:00 -37°C° 0 mm 4 mps 741 mmHg 87%
16:00 -36°C° 0 mm 3 mps 741 mmHg 90%
17:00 -38°C° 0 mm 3 mps 741 mmHg 92%
18:00 -40°C° 0 mm 3 mps 741 mmHg 95%
19:00 -40°C° 0 mm 3 mps 741 mmHg 95%
20:00 -39°C° 0 mm 2 mps 741 mmHg 96%
21:00 -39°C° 0 mm 2 mps 741 mmHg 97%
22:00 -40°C° 0 mm 2 mps 740 mmHg 97%
23:00 -41°C° 0 mm 2 mps 740 mmHg 97%

2 February, Tuesday

Time Temperature Precipitation Wind Pressure Humidity
00:00 -41°C° 0 mm 2 mps 740 mmHg 97%
01:00 -42°C° 0 mm 2 mps 740 mmHg 97%
02:00 -42°C° 0 mm 2 mps 739 mmHg 98%
03:00 -42°C° 0 mm 2 mps 739 mmHg 98%
04:00 -43°C° 0 mm 2 mps 739 mmHg 98%
05:00 -43°C° 0 mm 2 mps 739 mmHg 98%
06:00 -40°C° 0 mm 1 mps 739 mmHg 98%
07:00 -40°C° 0 mm 1 mps 739 mmHg 97%
08:00 -40°C° 0 mm 1 mps 739 mmHg 96%
09:00 -43°C° 0 mm 2 mps 739 mmHg 95%
10:00 -42°C° 0 mm 2 mps 739 mmHg 92%
11:00 -40°C° 0 mm 2 mps 739 mmHg 90%
12:00 -39°C° 0 mm 2 mps 739 mmHg 87%
13:00 -38°C° 0 mm 2 mps 739 mmHg 88%
14:00 -37°C° 0 mm 2 mps 739 mmHg 88%
15:00 -39°C° 0 mm 3 mps 739 mmHg 88%
16:00 -37°C° 0 mm 2 mps 740 mmHg 91%
17:00 -34°C° 0 mm 1 mps 740 mmHg 94%
18:00 -35°C° 0 mm 1 mps 741 mmHg 96%
19:00 -35°C° 0 mm 1 mps 741 mmHg 97%
20:00 -35°C° 0 mm 1 mps 741 mmHg 98%
21:00 -36°C° 0 mm 1 mps 741 mmHg 98%
22:00 -36°C° 0 mm 1 mps 741 mmHg 98%
23:00 -36°C° 0 mm 1 mps 741 mmHg 99%
Show more